When you browse on this site, cookies collect data to enhance your experience and personalize the content and advertising you see.
Visit our Privacy Policy to learn more. By continuing to use the site, you agree to this use of cookies and data.
  • Em Portugal
  • Lista de países
  • Para 7 dias
  • Temperatura da água
  • Mapa do tempo
  • Widgets de tempo
  • user-avatar
    Iniciar Sessão

    Previsão horária em Neuquén

    Hoje, 28 Janeiro, Terça-feira

    Tempo Temperatura Precipitação Vento Pressão Humidade
    00:00 +26°C° 0 mm 5 m/s 728 mmHg 33%
    01:00 +24°C° 0 mm 7 m/s 728 mmHg 36%
    02:00 +24°C° 0 mm 7 m/s 728 mmHg 38%
    03:00 +23°C° 0 mm 6 m/s 728 mmHg 40%
    04:00 +23°C° 0 mm 6 m/s 728 mmHg 42%
    05:00 +24°C° 0 mm 7 m/s 728 mmHg 40%
    06:00 +27°C° 0 mm 7 m/s 728 mmHg 37%
    07:00 +28°C° 0 mm 5 m/s 728 mmHg 33%
    08:00 +30°C° 0 mm 7 m/s 727 mmHg 31%
    09:00 +32°C° 0 mm 9 m/s 727 mmHg 28%
    10:00 +34°C° 0 mm 10 m/s 727 mmHg 25%
    11:00 +34°C° 0 mm 12 m/s 727 mmHg 22%
    12:00 +36°C° 0 mm 13 m/s 726 mmHg 20%
    13:00 +36°C° 0 mm 14 m/s 726 mmHg 17%
    14:00 +36°C° 0 mm 14 m/s 726 mmHg 15%
    15:00 +34°C° 0 mm 15 m/s 726 mmHg 13%
    16:00 +33°C° 0 mm 15 m/s 726 mmHg 12%
    17:00 +31°C° 0 mm 13 m/s 727 mmHg 12%
    18:00 +28°C° 0 mm 11 m/s 727 mmHg 11%
    19:00 +26°C° 0 mm 9 m/s 727 mmHg 11%
    20:00 +24°C° 0 mm 8 m/s 728 mmHg 18%
    21:00 +22°C° 0 mm 6 m/s 729 mmHg 26%
    22:00 +20°C° 0 mm 5 m/s 730 mmHg 33%
    23:00 +19°C° 0 mm 4 m/s 731 mmHg 33%

    Amanhã, 29 Janeiro, Quarta-feira

    Tempo Temperatura Precipitação Vento Pressão Humidade
    00:00 +18°C° 0 mm 4 m/s 731 mmHg 34%
    01:00 +17°C° 0 mm 3 m/s 731 mmHg 35%
    02:00 +17°C° 0 mm 3 m/s 731 mmHg 35%
    03:00 +17°C° 0 mm 3 m/s 731 mmHg 34%
    04:00 +15°C° 0 mm 4 m/s 732 mmHg 34%
    05:00 +18°C° 0 mm 4 m/s 732 mmHg 30%
    06:00 +19°C° 0 mm 4 m/s 733 mmHg 26%
    07:00 +20°C° 0 mm 4 m/s 733 mmHg 22%
    08:00 +22°C° 0 mm 3 m/s 733 mmHg 21%
    09:00 +24°C° 0 mm 2 m/s 734 mmHg 20%
    10:00 +25°C° 0 mm 1 m/s 734 mmHg 19%
    11:00 +27°C° 0 mm 1 m/s 733 mmHg 17%
    12:00 +28°C° 0 mm 1 m/s 733 mmHg 14%
    13:00 +29°C° 0 mm 2 m/s 733 mmHg 11%
    14:00 +30°C° 0 mm 3 m/s 732 mmHg 10%
    15:00 +30°C° 0 mm 4 m/s 732 mmHg 9%
    16:00 +32°C° 0 mm 5 m/s 731 mmHg 7%
    17:00 +28°C° 0 mm 3 m/s 731 mmHg 9%
    18:00 +26°C° 0 mm 2 m/s 731 mmHg 11%
    19:00 +24°C° 0 mm 1 m/s 731 mmHg 13%
    20:00 +24°C° 0 mm 1 m/s 732 mmHg 13%
    21:00 +23°C° 0 mm 2 m/s 732 mmHg 13%
    22:00 +23°C° 0 mm 2 m/s 732 mmHg 12%
    23:00 +21°C° 0 mm 2 m/s 732 mmHg 14%

    Depois de amanhã, 30 Janeiro, Quinta-feira

    Tempo Temperatura Precipitação Vento Pressão Humidade
    00:00 +20°C° 0 mm 2 m/s 732 mmHg 15%
    01:00 +20°C° 0 mm 1 m/s 732 mmHg 17%
    02:00 +20°C° 0 mm 1 m/s 732 mmHg 18%
    03:00 +20°C° 0 mm 1 m/s 732 mmHg 20%
    04:00 +19°C° 0 mm 1 m/s 731 mmHg 21%
    05:00 +21°C° 0 mm 2 m/s 732 mmHg 19%
    06:00 +24°C° 0 mm 2 m/s 732 mmHg 17%
    07:00 +27°C° 0 mm 2 m/s 732 mmHg 15%
    08:00 +29°C° 0 mm 3 m/s 732 mmHg 14%
    09:00 +31°C° 0 mm 3 m/s 732 mmHg 13%
    10:00 +33°C° 0 mm 3 m/s 732 mmHg 12%
    11:00 +35°C° 0 mm 3 m/s 731 mmHg 11%
    12:00 +36°C° 0 mm 4 m/s 730 mmHg 9%
    13:00 +37°C° 0 mm 4 m/s 730 mmHg 7%
    14:00 +37°C° 0 mm 4 m/s 729 mmHg 7%
    15:00 +38°C° 0 mm 3 m/s 728 mmHg 7%
    16:00 +38°C° 0 mm 3 m/s 727 mmHg 6%
    17:00 +35°C° 0 mm 3 m/s 727 mmHg 8%
    18:00 +32°C° 0 mm 2 m/s 727 mmHg 10%
    19:00 +29°C° 0 mm 1 m/s 727 mmHg 11%
    20:00 +29°C° 0 mm 3 m/s 728 mmHg 14%
    21:00 +29°C° 0 mm 5 m/s 728 mmHg 16%
    22:00 +29°C° 0 mm 7 m/s 729 mmHg 19%
    23:00 +28°C° 0 mm 7 m/s 729 mmHg 21%

    31 Janeiro, Sexta-feira

    Tempo Temperatura Precipitação Vento Pressão Humidade
    00:00 +27°C° 0 mm 6 m/s 729 mmHg 24%
    01:00 +26°C° 0 mm 6 m/s 729 mmHg 27%
    02:00 +25°C° 0 mm 5 m/s 729 mmHg 30%
    03:00 +23°C° 0 mm 5 m/s 729 mmHg 33%
    04:00 +22°C° 0 mm 4 m/s 729 mmHg 36%
    05:00 +25°C° 0 mm 4 m/s 730 mmHg 33%
    06:00 +26°C° 0 mm 4 m/s 730 mmHg 31%
    07:00 +28°C° 0 mm 3 m/s 731 mmHg 29%
    08:00 +29°C° 0 mm 3 m/s 731 mmHg 26%
    09:00 +31°C° 0 mm 3 m/s 731 mmHg 23%
    10:00 +33°C° 0 mm 3 m/s 731 mmHg 20%
    11:00 +34°C° 0 mm 3 m/s 730 mmHg 18%
    12:00 +35°C° 0 mm 4 m/s 730 mmHg 16%
    13:00 +36°C° 0 mm 4 m/s 729 mmHg 14%
    14:00 +37°C° 0 mm 4 m/s 728 mmHg 12%
    15:00 +38°C° 0 mm 4 m/s 728 mmHg 10%
    16:00 +40°C° 0 mm 4 m/s 727 mmHg 8%
    17:00 +37°C° 0 mm 4 m/s 727 mmHg 10%
    18:00 +35°C° 0 mm 4 m/s 727 mmHg 11%
    19:00 +33°C° 0 mm 4 m/s 727 mmHg 13%
    20:00 +32°C° 0 mm 5 m/s 728 mmHg 18%
    21:00 +30°C° 0 mm 6 m/s 728 mmHg 22%
    22:00 +29°C° 0 mm 7 m/s 729 mmHg 27%
    23:00 +28°C° 0 mm 6 m/s 729 mmHg 30%

    1 Fevereiro, Sábado

    Tempo Temperatura Precipitação Vento Pressão Humidade
    00:00 +27°C° 0 mm 6 m/s 729 mmHg 33%
    01:00 +26°C° 0 mm 5 m/s 729 mmHg 36%
    02:00 +25°C° 0 mm 4 m/s 728 mmHg 38%
    03:00 +23°C° 0 mm 4 m/s 728 mmHg 40%
    04:00 +24°C° 0 mm 3 m/s 728 mmHg 41%
    05:00 +25°C° 0 mm 4 m/s 728 mmHg 39%
    06:00 +27°C° 0 mm 4 m/s 728 mmHg 36%
    07:00 +28°C° 0 mm 4 m/s 728 mmHg 33%
    08:00 +30°C° 0 mm 6 m/s 728 mmHg 27%
    09:00 +34°C° 0 mm 7 m/s 728 mmHg 21%
    10:00 +37°C° 0 mm 9 m/s 728 mmHg 16%
    11:00 +38°C° 0 mm 9 m/s 728 mmHg 13%
    12:00 +40°C° 0 mm 10 m/s 727 mmHg 11%
    13:00 +42°C° 0 mm 10 m/s 726 mmHg 8%
    14:00 +42°C° 0 mm 11 m/s 726 mmHg 8%
    15:00 +41°C° 0 mm 12 m/s 726 mmHg 9%
    16:00 +41°C° 0 mm 14 m/s 725 mmHg 9%
    17:00 +37°C° 0 mm 13 m/s 726 mmHg 14%
    18:00 +34°C° 0 mm 12 m/s 727 mmHg 19%
    19:00 +31°C° 0 mm 11 m/s 727 mmHg 24%
    20:00 +28°C° 0 mm 10 m/s 728 mmHg 29%
    21:00 +27°C° 0 mm 9 m/s 728 mmHg 33%
    22:00 +24°C° 0 mm 8 m/s 729 mmHg 38%
    23:00 +23°C° 0 mm 8 m/s 729 mmHg 39%

    2 Fevereiro, Domingo

    Tempo Temperatura Precipitação Vento Pressão Humidade
    00:00 +22°C° 0 mm 7 m/s 729 mmHg 39%
    01:00 +21°C° 0 mm 6 m/s 729 mmHg 40%
    02:00 +21°C° 0 mm 6 m/s 730 mmHg 37%
    03:00 +20°C° 0 mm 6 m/s 730 mmHg 34%
    04:00 +20°C° 0 mm 5 m/s 731 mmHg 31%
    05:00 +20°C° 0 mm 5 m/s 731 mmHg 27%
    06:00 +21°C° 0 mm 4 m/s 732 mmHg 23%
    07:00 +21°C° 0 mm 3 m/s 732 mmHg 20%
    08:00 +24°C° 0 mm 2 m/s 732 mmHg 18%
    09:00 +26°C° 0 mm 1 m/s 732 mmHg 16%
    10:00 +27°C° 0 mm 1 m/s 732 mmHg 15%
    11:00 +29°C° 0 mm 2 m/s 731 mmHg 15%
    12:00 +30°C° 0 mm 3 m/s 730 mmHg 15%
    13:00 +33°C° 0 mm 4 m/s 729 mmHg 16%
    14:00 +34°C° 0 mm 5 m/s 729 mmHg 16%
    15:00 +35°C° 0 mm 6 m/s 728 mmHg 17%
    16:00 +35°C° 0 mm 7 m/s 727 mmHg 17%
    17:00 +34°C° 0.1 mm 6 m/s 727 mmHg 20%
    18:00 +32°C° 0.1 mm 5 m/s 727 mmHg 23%
    19:00 +29°C° 0.1 mm 4 m/s 727 mmHg 27%
    20:00 +28°C° 0.1 mm 3 m/s 727 mmHg 30%
    21:00 +27°C° 0.1 mm 3 m/s 727 mmHg 34%
    22:00 +26°C° 0.1 mm 3 m/s 728 mmHg 38%
    23:00 +26°C° 0 mm 3 m/s 728 mmHg 33%
    Mostrar mais